SCP
2 2 2 2 1 1 1 1 2 2 2 2 2 2 10 19 10 1 1 1 1 1 1 1 1 1 1 1 1 1 1 1 1 1 1 1 1 1 1 1 1 0 0
2 2 2 2 2 2 2 2 2 2 2 2 2 2 5 8 5 1 1 1 1 1 1 1 1 1 1 2 2 2 1 1 1 1 1 1 1 1 1 1 1 0 0
2 2 2 2 2 2 3 3 3 3 3 2 2 2 1 1 1 1 1 1 1 1 1 1 1 2 2 2 2 2 2 2 1 1 1 1 1 1 1 1 1 1 0
2 2 2 2 3 3 3 4 4 4 3 3 2 2 1 1 1 1 1 1 1 1 1 1 1 2 2 2 2 2 2 2 1 1 1 1 1 1 1 1 1 1 1
2 2 2 3 3 3 4 4 4 4 3 3 3 2 2 2 2 1 1 1 1 1 1 1 1 2 2 2 2 2 2 2 2 1 1 1 1 1 1 1 1 1 1
2 3 3 3 3 4 4 4 4 4 3 3 3 2 2 2 2 2 2 2 1 1 1 1 2 2 2 2 2 2 2 2 2 2 1 1 1 1 1 1 1 1 1
3 3 4 3 3 4 4 4 4 4 4 4 3 2 2 2 2 2 2 2 1 1 1 1 2 2 2 2 1 2 2 2 2 2 2 1 1 1 1 1 1 1 1
3 3 3 4 4 4 4 4 4 4 4 4 3 3 2 2 2 2 2 2 1 1 1 1 1 1 2 2 2 2 2 2 2 2 2 2 2 1 1 1 1 1 1
2 2 3 3 4 4 4 4 4 4 4 3 3 3 3 2 2 1 1 1 1 1 1 1 1 1 1 2 2 2 2 2 2 2 2 2 2 1 1 1 1 1 1
1 2 2 2 3 3 3 3 4 4 4 4 3 3 3 2 2 1 1 1 1 0 1 1 1 1 1 2 2 1 1 1 1 2 2 2 1 1 1 1 1 1 1
1 1 1 2 2 2 3 3 3 4 4 4 3 3 3 2 2 1 1 1 0 0 0 1 1 1 1 1 2 1 1 1 1 1 1 1 1 1 1 1 1 1 1
0 1 1 1 2 2 2 2 3 3 4 4 3 3 2 2 2 1 1 1 0 0 0 0 1 1 1 1 1 1 1 0 0 1 1 1 1 1 1 1 1 1 1
0 0 1 1 1 1 2 2 2 2 3 3 3 2 2 2 2 1 1 1 0 0 0 0 0 0 0 1 0 0 0 0 0 0 0 1 1 1 1 1 1 1 1
0 0 0 1 1 1 1 2 2 2 2 2 2 2 2 2 2 1 1 1 0 0 0 0 0 0 0 0 0 0 0 0 0 0 0 0 0 0 0 0 0 1 1
0 0 0 0 1 1 1 1 2 2 2 2 2 2 2 2 1 1 1 1 0 0 0 0 0 0 0 0 0 0 0 0 0 0 0 0 0 0 0 0 0 0 0
0 1 1 1 1 1 1 1 1 2 3 2 2 1 1 1 1 1 1 1 0 0 0 0 0 0 0 0 0 0 0 0 0 0 0 0 0 0 0 0 0 0 0
0 0 1 1 1 1 1 1 1 1 2 2 2 1 1 1 1 1 0 0 0 0 0 0 0 0 0 0 0 0 0 0 0 0 0 0 0 0 0 0 0 0 0
0 0 0 0 0 1 1 1 1 1 1 2 1 1 1 1 1 0 0 0 0 0 0 0 0 0 0 0 0 0 0 0 0 0 0 0 0 0 0 0 0 0 0
0 0 0 0 0 0 0 0 0 1 1 1 1 1 1 1 0 0 0 0 0 0 0 0 0 0 0 0 0 0 0 0 0 0 0 0 0 0 0 0 0 0 0
0 0 0 0 0 0 0 0 0 0 0 0 0 0 0 0 0 0 0 0 0 0 0 0 0 0 0 0 0 0 0 0 0 0 0 0 0 0 0 0 0 0 0
0 0 0 0 0 0 0 0 0 0 0 0 0 0 0 0 0 0 0 0 0 0 0 0 0 0 0 0 0 0 0 0 0 0 0 0 0 0 0 0 0 0 0
0 0 0 0 0 0 0 0 0 0 0 0 0 0 0 0 0 0 0 0 0 0 0 0 0 0 0 0 0 0 0 0 0 0 0 0 0 0 0 0 0 0 0
0 0 0 0 0 0 0 0 0 0 0 0 0 0 0 0 0 0 0 0 0 0 0 0 0 0 0 0 0 0 0 0 0 0 0 0 0 0 0 0 0 0 0
0 0 0 0 0 0 0 0 0 0 0 0 0 0 0 0 0 0 0 0 0 0 0 0 0 0 0 0 0 0 0 0 0 0 0 0 0 0 0 0 0 0 0
0 0 0 0 0 0 0 0 0 0 0 0 0 0 0 0 0 0 0 0 0 0 0 0 0 0 0 0 0 0 0 0 0 0 0 0 0 0 0 0 0 0 0
0 0 0 0 0 0 0 0 0 0 0 0 0 0 0 0 0 0 0 0 0 0 0 0 0 0 0 0 0 0 0 0 0 0 0 0 0 0 0 0 0 0 0
Wind_Speed
6 6 6 6 7 6 6 6 7 8 8 8 8 10 10 10 10 9 6 14 15 16 16 16 16 15 15 14 15 16 17 18 17 17 18 19 19 19 18 18 18 17 17
7 7 7 7 7 6 7 7 8 7 6 6 8 9 9 9 9 9 8 10 15 15 16 16 16 16 15 15 15 16 16 17 17 17 18 18 18 18 18 18 18 18 17
8 8 7 7 7 6 7 6 7 5 5 5 7 8 8 8 8 9 8 7 8 12 15 16 16 16 16 16 16 16 17 17 17 17 18 18 18 18 18 18 18 18 17
9 8 8 8 7 6 6 6 5 4 4 4 5 6 6 6 9 9 8 8 7 7 10 14 15 15 16 17 17 17 17 17 17 18 18 18 18 18 18 18 18 17 17
8 8 8 8 7 7 6 7 5 4 4 5 5 6 6 7 8 9 9 9 9 8 8 10 14 15 16 17 17 17 17 17 17 18 19 19 19 18 18 17 17 17 17
7 7 7 9 7 6 7 6 7 6 5 5 6 8 7 8 7 8 9 8 7 8 8 8 7 8 13 14 14 15 16 17 17 17 18 19 19 19 18 17 17 17 17
5 5 6 6 6 7 8 8 7 7 7 4 4 5 7 8 9 7 7 7 7 8 7 6 6 5 5 9 11 12 13 15 16 17 17 17 18 18 18 18 17 17 17
5 5 5 5 5 6 7 8 7 5 5 5 5 3 4 4 5 6 5 6 6 4 5 5 5 5 5 4 5 8 9 10 12 15 16 16 17 18 18 18 18 17 17
5 5 6 5 5 5 6 7 7 8 7 6 6 5 4 5 2 2 3 3 3 2 3 3 4 4 4 3 2 3 4 4 5 8 11 12 14 16 17 18 18 18 18
6 6 6 5 5 4 6 6 7 7 7 6 5 7 5 3 3 2 2 2 2 2 2 2 2 2 2 1 0 0 1 0 1 3 4 7 10 13 16 17 19 19 19
5 6 6 5 5 5 6 6 6 7 7 7 6 5 6 5 5 4 3 2 1 1 1 1 1 1 1 1 1 2 3 4 4 3 2 1 4 8 12 15 18 19 19
4 5 6 6 6 5 6 6 7 8 7 8 7 5 5 4 5 5 5 3 2 1 1 1 1 1 2 2 3 5 5 5 5 5 4 3 2 2 7 11 14 15 17
4 5 6 6 6 6 7 6 7 7 8 9 8 7 6 5 4 4 4 3 2 1 0 1 2 2 2 3 3 6 6 6 5 5 5 5 5 4 1 5 7 9 11
5 6 7 7 8 8 7 6 6 7 6 8 9 8 6 6 5 4 4 4 3 2 1 1 2 3 3 3 4 5 5 7 7 6 6 7 7 7 7 6 5 3 3
5 6 7 7 7 7 7 6 5 6 5 6 6 7 5 4 4 4 4 4 5 4 2 1 2 3 3 3 5 4 5 7 8 8 7 7 8 8 8 8 8 7 5
5 6 7 7 7 7 6 6 5 4 3 3 3 4 4 3 3 4 4 4 3 4 3 2 2 2 3 4 6 6 6 9 10 9 8 8 8 8 8 8 8 7 6
6 6 7 7 7 7 6 4 4 3 2 2 2 3 3 3 3 3 3 3 3 4 6 3 2 3 4 5 5 6 6 6 6 10 9 9 9 9 8 8 8 7 6
5 6 6 6 6 6 5 4 3 1 1 2 3 4 4 4 4 3 3 4 4 5 7 7 3 4 5 4 5 6 6 6 6 9 9 9 9 8 8 8 8 7 7
4 5 5 5 5 4 3 2 1 1 3 4 4 5 5 6 6 5 6 6 6 7 6 7 4 3 4 4 4 5 5 5 5 7 8 8 9 9 8 8 8 7 7
3 4 4 4 3 2 2 2 3 3 5 5 5 5 5 6 7 7 7 8 8 9 8 7 5 4 4 3 4 4 4 4 5 6 6 6 7 8 8 8 8 7 7
3 2 2 2 2 1 2 3 4 5 5 6 6 7 7 9 10 8 8 8 9 8 7 7 6 5 4 4 3 2 3 2 4 5 4 4 4 4 5 6 7 8 7
3 2 1 0 1 2 4 6 5 5 5 7 7 7 8 10 14 15 14 12 10 9 8 6 5 5 3 2 2 3 3 3 3 5 4 4 3 4 4 4 6 6 7
5 4 3 2 2 3 4 6 7 6 6 6 6 6 7 8 10 11 13 13 11 10 9 7 7 4 3 1 2 3 4 4 3 4 3 3 4 3 3 4 6 7 7
6 5 5 5 4 4 6 6 8 6 6 6 6 6 7 7 7 10 10 10 8 7 6 5 6 4 2 2 2 2 2 2 2 3 4 3 4 3 3 3 6 8 8
7 7 6 7 6 6 8 9 9 6 6 6 5 5 6 7 9 12 11 10 9 7 9 10 10 9 8 6 3 3 3 4 4 3 4 3 3 3 3 3 4 8 9
9 9 8 8 8 7 9 11 10 6 6 5 5 5 6 8 9 10 10 10 9 6 6 8 8 8 8 9 9 5 4 4 3 3 5 4 3 3 3 3 3 6 7
Wind_Direction
239 240 243 243 244 241 242 246 248 252 254 254 253 252 252 251 252 250 254 260 262 262 265 267 266 263 258 248 237 230 225 222 219 217 217 219 219 217 216 215 213 211 210
236 238 242 241 241 239 240 240 244 249 255 260 262 259 257 255 254 253 252 258 260 260 263 265 266 263 257 249 238 231 227 224 221 218 218 218 219 217 217 216 215 213 211
235 237 243 245 243 238 237 240 241 241 250 256 262 266 264 259 256 256 256 255 259 259 259 259 259 259 256 249 241 234 229 226 222 219 218 218 218 217 216 216 215 213 210
235 237 243 247 243 238 234 234 231 232 242 251 262 267 266 266 263 259 257 256 254 257 257 258 258 257 256 253 246 239 232 227 224 221 218 217 217 216 216 216 215 212 209
241 235 241 244 240 237 233 231 224 217 231 241 254 263 262 260 259 260 258 257 254 252 253 257 256 256 257 255 251 244 236 230 227 224 220 218 216 214 213 214 214 211 208
254 244 245 247 240 237 233 225 222 215 218 220 239 252 252 253 252 250 253 258 258 257 254 254 254 254 254 254 251 249 243 234 229 226 223 219 216 213 211 211 211 210 207
275 263 262 257 242 235 234 226 219 220 221 207 225 252 254 249 249 248 247 250 255 257 254 250 250 249 252 250 248 247 248 241 233 228 226 221 216 212 209 208 208 207 206
295 289 279 272 259 247 244 235 222 223 222 196 204 224 256 266 248 240 238 239 243 249 253 253 250 248 247 243 242 240 245 247 240 233 227 222 217 211 208 207 206 205 205
305 298 292 285 275 258 251 244 231 228 231 217 205 201 214 231 252 258 236 232 236 245 258 266 262 261 258 248 248 250 252 265 262 249 234 223 217 212 207 206 205 205 204
309 307 303 296 286 273 261 251 239 234 231 230 217 217 219 194 193 253 266 254 250 248 256 261 270 283 284 270 285 357 15 349 324 291 257 231 219 211 207 206 207 206 205
306 308 306 301 291 277 267 261 253 241 232 229 220 209 218 220 210 213 241 254 278 278 282 269 262 319 11 32 43 52 54 49 41 30 18 278 224 212 206 207 210 209 209
301 306 308 302 293 283 272 265 256 249 239 233 226 215 202 198 200 204 218 223 226 259 330 3 34 27 26 32 47 57 61 58 50 45 44 42 33 214 204 205 208 210 210
304 307 308 303 296 287 279 270 261 253 241 235 230 225 218 213 187 187 193 195 192 203 26 26 22 30 47 42 41 46 51 53 54 51 49 51 51 50 132 195 202 209 212
292 297 301 298 293 290 284 275 267 258 247 239 233 224 220 213 197 189 182 169 165 157 104 57 21 28 40 48 44 51 51 51 58 59 58 58 60 61 65 75 91 116 150
288 298 301 300 298 295 289 282 272 265 252 240 228 218 213 205 195 194 184 173 165 162 146 74 51 18 31 59 44 58 61 60 65 68 67 66 67 69 72 75 78 81 83
289 300 304 304 303 301 295 286 278 265 251 237 214 202 197 189 185 184 180 173 164 146 131 98 65 29 33 62 51 60 64 62 60 65 69 71 71 73 74 75 76 77 77
290 297 303 306 305 304 299 290 286 268 238 211 183 173 167 156 159 159 152 151 143 128 123 103 54 36 50 57 50 54 59 59 56 56 66 70 72 73 72 71 70 67 63
285 295 303 307 307 306 304 294 292 277 169 141 132 128 128 127 117 115 121 124 121 117 124 118 70 44 49 49 52 53 49 53 53 52 59 65 68 72 73 69 66 60 52
284 299 308 310 312 316 324 335 21 78 94 98 101 109 110 111 104 100 101 103 102 100 99 109 92 55 53 43 49 49 47 38 44 47 52 58 60 65 68 66 61 54 44
271 296 309 315 323 346 23 48 67 81 86 83 83 88 92 103 108 107 103 103 105 101 99 101 94 72 56 37 52 51 50 36 33 28 34 42 51 60 61 59 53 46 36
247 267 305 341 359 39 72 83 82 89 91 88 81 78 84 98 103 106 112 110 109 106 104 101 94 83 62 51 48 32 58 46 46 24 17 28 32 40 43 44 44 37 25
224 218 229 59 54 81 87 90 96 95 92 90 88 84 89 90 92 92 96 99 108 116 115 106 99 94 80 62 49 49 51 50 41 11 8 15 20 30 29 33 28 25 15
205 201 194 165 141 127 120 109 102 100 94 90 91 94 96 94 96 99 93 88 87 96 110 119 113 112 106 93 89 74 65 68 56 354 353 15 6 14 17 24 21 20 11
200 197 190 176 164 165 153 136 119 105 95 85 84 94 105 105 110 111 105 94 85 78 90 98 109 108 102 112 100 93 93 88 65 33 13 19 352 346 346 4 15 11 5
204 196 188 178 174 177 167 149 132 117 104 90 84 91 109 108 118 118 112 106 94 83 81 87 85 81 77 76 99 100 82 77 54 25 16 12 348 333 333 348 359 2 358
211 196 191 184 179 178 174 159 143 132 121 112 95 87 103 117 123 123 122 121 115 108 104 90 74 65 66 62 58 66 82 83 68 31 8 1 359 355 353 346 349 1 0